Flag for Israel Weather past 2 weeks in Ashdod, Israel

Now
61 °F

Clear.


Feels Like: 61 °F
Forecast: 58 / 67 °F
Wind: 3 mph from North

Location: Ben Gurion International Airport

Current Time: Feb 28, 2015 at 12:58:39 AM

Latest Report: Feb 28, 2015 at 12:20 AM


Visibility: 10 mi

Pressure: 29.92 "Hg

Humidity: 59%

Dew point: 46 °F

Location of AshdodLocation

Historic Weather in Ashdod — Graph

°F

Ashdod temperature yesterday

Maximum temperature yesterday: 86 °F (at 1:50 PM)
Minimum temperature yesterday: 59 °F (at 10:50 PM)
Average temperature yesterday: 72 °F

Past Weeks' High & Low Weather Summary

 TemperatureHumidityPressure
High86 °F (Feb 27, 1:50 PM)94% (Feb 14, 4:50 AM)30.21 "Hg (Feb 14, 4:50 AM)
Low41 °F (Feb 19, 11:20 PM)19% (Feb 27, 11:50 AM)29.71 "Hg (Feb 20, 4:50 AM)
Average56 °F67%30.00 "Hg
* Reported Feb 12 11:20 PM — Feb 27 11:50 PM, Ashdod, Weather by CustomWeather, © 2015

Note: Actual official high and low records may vary slightly from our data, if they occured in-between our weather recording intervals... More about our weather records

Advertising

Ashdod weather history for previous 24 hours

 ConditionsComfort  
Time TempWeatherWind HumidityBarometerVisibility
11:50 PM
Fri, Feb 27
61 °FClear.5 mph59%29.92 "Hg10 mi
11:20 PM63 °FClear.2 mph64%29.92 "Hg10 mi
10:50 PM59 °FClear.1 mph72%29.95 "Hg10 mi
10:20 PM61 °FClear.7 mph68%29.92 "Hg10 mi
9:50 PM63 °FClear.1 mph64%29.92 "Hg10 mi
9:20 PM64 °FClear.5 mph56%29.92 "Hg10 mi
8:50 PM64 °FClear.3 mph56%29.92 "Hg10 mi
8:20 PM64 °FClear.5 mph60%29.92 "Hg10 mi
7:50 PM66 °FClear.5 mph56%29.92 "Hg10 mi
7:20 PM70 °FClear.6 mph46%29.92 "Hg10 mi
6:50 PM72 °FClear.2 mph41%29.92 "Hg10 mi
6:20 PM73 °FClear.5 mph38%29.92 "Hg10 mi
5:50 PM75 °FClear.5 mph39%29.92 "Hg10 mi
5:20 PM79 °FSunny.5 mph28%29.92 "Hg10 mi
4:50 PM81 °FSunny.6 mph28%29.89 "Hg10 mi
4:20 PM82 °FSunny.8 mph26%29.89 "Hg10 mi
3:50 PM84 °FSunny.6 mph27%29.89 "Hg10 mi
3:20 PM86 °FSunny.8 mph22%29.89 "Hg10 mi
2:50 PM86 °FSunny.8 mph19%29.89 "Hg10 mi
2:20 PM86 °FSunny.9 mph19%29.89 "Hg10 mi
1:50 PM86 °FPassing clouds.9 mph20%29.89 "HgN/A
1:20 PM84 °FSunny.8 mph22%29.89 "Hg10 mi
12:50 PM84 °FSunny.9 mph20%29.92 "Hg10 mi
12:20 PM82 °FSunny.12 mph19%29.92 "Hg10 mi
11:50 AM82 °FSunny.13 mph19%29.92 "Hg10 mi
11:20 AM81 °FSunny.14 mph21%29.95 "Hg10 mi
10:50 AM81 °FSunny.8 mph20%29.95 "Hg10 mi
10:20 AM79 °FSunny.6 mph21%29.95 "Hg10 mi
9:50 AM77 °FSunny.6 mph21%29.98 "Hg10 mi
9:20 AM75 °FSunny.9 mph22%29.98 "Hg10 mi
8:50 AM73 °FSunny.7 mph23%29.98 "Hg10 mi
8:20 AM72 °FSunny.7 mph25%29.98 "Hg10 mi
7:50 AM68 °FSunny.7 mph26%29.95 "Hg10 mi
7:20 AM66 °FSunny.10 mph30%29.95 "Hg10 mi
6:50 AM64 °FPassing clouds.5 mph30%29.95 "HgN/A
6:20 AM66 °FSunny.8 mph28%29.95 "Hg10 mi
5:20 AM66 °FClear.10 mph26%29.95 "Hg10 mi
4:50 AM66 °FClear.1 mph28%29.92 "Hg10 mi
4:20 AM66 °FClear.9 mph28%29.92 "Hg10 mi
3:50 AM66 °FClear.15 mph28%29.92 "Hg10 mi
3:20 AM68 °FClear.13 mph26%29.95 "Hg10 mi
2:50 AM68 °FClear.7 mph26%29.95 "Hg10 mi
2:20 AM68 °FClear.6 mph26%29.95 "Hg10 mi
1:50 AM66 °FClear.9 mph30%29.95 "Hg10 mi
1:20 AM68 °FClear.12 mph28%29.98 "Hg10 mi
12:50 AM68 °FClear.10 mph28%29.98 "Hg10 mi
12:20 AM68 °FClear.8 mph28%29.98 "Hg10 mi
Weather by CustomWeather, © 2015

See weather overviewHow to use our weather pages